Showing default

YUNHAI 1, 41857

Orbit data source: Space-Track

YUNHAI 1, 41857 is a payload satellite owned by SAST (CN) in SSO that was launched on Fri, 11 Nov 2016 UTC via a CHANG ZHENG 2D launch vehicle from the Jiuquan Satellite Launch Center, China (JSC). Payload-class satellites include a variety of spacecraft equipped with specific instruments for various scientific and technological missions. These include communications satellites like Starlink; space stations such as the ISS; scientific satellites like the Hubble; Earth observation satellites from companies like Planet Labs, Umbra, and HawkEye 360; GPS; miniature CubeSats for education and research; and military/defense satellites.

Loading next visibility...
Identifier
41857, 2016-068A
Orbit
SSO
Country
Flag of CNCN / PRC
Related business
Manufacturer
SAST
Mission
Operational Defense Weather
Bus & Motor
YUNHAI-1, Unknown motor
Mass
~800 kg wet, ~800 kg dry
Launch date (UTC)
2016-11-11 (9 years ago)
Launch vehicle
CHANG ZHENG 2D
Launch site
Jiuquan Satellite Launch Center, China (JSC)
Object type
Payload
Rocket body
Debris
Shape & HBR
Box + 2 Pan, 2.0 m
Radar Cross Section
5.141 m², Large (>1 m²)

Expand to show TLE details & history
Last TLE update: 6 hours ago

TLE from 6 hours ago
0 YUNHAI 1
1 41857U 16068A   25311.28658894  .00000386  00000-0  15843-3 0  9999
2 41857  98.5904 319.3114 0005097 340.5024  19.5964 14.32605446470058
Epoch: 2025-11-07T06:52Z
TLE epoch observation values (Epoch: 2025-11-07T06:52:41.284Z)
Latitude
-0.00003°
Longitude
169.40666°
Altitude
782.531 km
Speed
7.464 km/s
True Right ascension
21h 17m 14s
True Declination
0° 00' 00"
Sunlit
Object was in daylight at epoch
Visualization orbit readout
Latitude
Unknown
Longitude
Unknown
Altitude
Unknown
Speed
Unknown
Apparent Right ascension
Unknown
Apparent Declination
Unknown
Sunlit
N/A
Visualization observer readout
Local Sidereal Time
09:00:16
Azimuth
Unknown
Elevation
Unknown
Doppler factor
Unknown
Orbital elements
Apogee altitude
783.82 km
Perigee altitude
776.523 km
Semi-major axis
7,158.308 km
Eccentricity
0.00051
Inclination
98.5904°
RAAN
319.3114°
Arg. of periapsis
340.5024°
True anomaly
19.616°
Mean anomaly
19.5964°
Eccentric anomaly
19.6062°
Mean motion
3.58367 °/min
Orbital period
100.46 mins
BSTAR
0.00015843
Loading maneuver chart data...
Computing Atmospheric mass density...
Loading historical data...
Loading historical data...
Loading historical data...
Loading historical data...
Loading historical data...
Loading historical data...
Loading historical data...

Documentation

Showing up to 5 results
|